Location: *
(32.8667°N, 13.1833°E)
Time: 16:12:43
(UTC+00:00)

ATLAS 5 CENTAUR R/B - Pass Details

Date: 18 July 2019
Orbit: 569 x 1090 km, 63.4° (Epoch: 06 August)

Event Time Altitude Azimuth Distance (km) Brightness Sun altitude
Rises 23:26:19 0° 343° (NNW) 3,404 6.2 -36.1°
Reaches altitude 10° 23:29:08 10° 356° (N) 2,556 5.4 -36.1°
Maximum altitude 23:34:05 26° 51° (NE) 1,808 4.2 -36.0°
Enters shadow 23:35:48 23° 75° (ENE) 1,959 4.2 -35.9°
